Temp
56 56 56 56 56 56 56 56 56 56 57 58 58 58 58 58 58 56 56 63 57 53 56 60 63 58 59 59 54 60 59 60 57 53 53 52 51 55 54 56 52 53 51 48 53 50 48 68 66 60 65 66 67 72
55 56 56 56 56 56 56 56 56 56 56 57 58 58 58 58 58 57 53 63 62 54 55 63 64 66 64 64 59 60 58 58 59 52 50 50 48 52 49 45 57 48 50 47 51 53 63 65 65 66 68 65 66 64
55 55 55 56 55 55 55 55 56 56 56 57 57 58 58 58 57 57 55 58 59 55 57 60 61 71 74 72 73 56 60 63 62 64 56 52 48 52 45 47 51 55 54 49 52 59 60 64 66 66 67 71 71 69
55 55 55 55 55 55 55 55 56 56 56 56 57 57 57 57 57 57 55 60 56 52 48 58 73 64 72 75 74 72 68 68 66 63 58 55 49 57 50 53 52 54 54 51 53 56 60 64 63 65 66 69 76 72
55 55 55 55 55 55 55 55 55 55 56 56 56 57 57 57 56 56 59 61 62 52 46 51 60 68 74 72 72 72 69 63 59 55 54 51 56 54 57 57 55 56 53 49 49 56 55 56 62 64 64 65 66 69
54 54 54 54 54 55 55 56 56 56 55 56 56 56 56 56 56 56 52 58 60 55 48 43 60 62 70 70 68 67 65 63 62 56 55 58 62 55 49 48 59 59 60 59 56 60 59 60 63 66 65 69 72 73
54 54 54 54 54 55 55 56 56 56 56 56 56 56 55 55 55 50 48 53 56 57 48 44 52 63 68 67 66 65 66 63 60 58 54 54 55 56 53 48 59 62 62 62 62 60 59 60 60 61 63 70 72 76
54 54 54 54 54 54 55 55 55 56 56 56 56 55 55 54 54 52 61 57 56 51 51 43 49 56 64 56 53 61 58 60 58 56 57 54 54 53 48 57 61 64 63 62 61 62 62 61 64 61 63 69 71 74
54 54 54 54 54 54 54 55 55 55 56 55 55 55 55 54 54 56 61 58 60 55 45 48 47 46 63 55 58 56 55 50 59 53 54 54 51 47 54 56 60 62 60 61 65 65 63 64 62 61 60 64 74 72
54 54 54 54 54 54 54 54 55 55 55 55 54 52 49 55 60 60 57 49 49 50 52 47 56 51 59 54 53 53 54 49 46 53 57 51 51 58 60 61 60 61 63 64 60 59 59 57 58 58 59 61 75 73
54 54 54 54 54 54 54 55 55 55 54 55 51 51 58 59 59 53 48 45 49 46 52 55 56 52 62 52 50 53 49 51 44 50 49 48 49 54 59 60 61 63 66 65 63 60 58 58 58 58 59 61 74 74
54 54 54 54 54 54 54 55 56 55 53 51 51 56 60 56 51 47 47 50 49 48 51 51 53 54 56 60 51 52 49 47 42 52 48 46 52 56 58 60 62 63 65 67 67 61 60 61 60 59 59 61 64 74
54 54 54 54 54 54 54 54 55 54 54 58 50 50 50 50 39 45 45 45 44 51 53 52 51 54 54 57 52 51 47 46 52 45 46 49 54 57 59 60 62 63 67 68 62 62 62 60 61 63 61 63 67 72
54 54 53 53 54 54 54 54 54 55 53 48 48 37 45 47 51 52 52 52 55 55 54 54 53 51 53 50 52 49 54 51 44 42 43 52 55 57 59 61 61 63 65 66 62 62 62 60 61 60 61 73 71 69
54 54 53 54 55 54 54 55 55 56 51 47 51 40 49 57 60 58 62 55 56 58 56 55 54 55 51 49 51 53 50 48 49 47 52 56 57 58 57 59 61 62 62 63 65 61 62 62 62 61 63 71 72 69
54 53 55 54 54 55 54 55 56 55 50 50 52 50 55 54 57 60 58 53 59 57 56 52 49 49 49 50 49 49 47 46 50 53 55 57 57 58 58 60 61 63 63 62 62 62 69 69 66 61 62 62 62 65
53 54 53 54 54 54 54 54 53 50 50 52 51 60 57 57 56 59 57 60 63 55 47 49 45 48 51 46 45 49 47 51 54 56 56 57 57 57 59 60 62 62 60 59 61 61 61 68 65 63 60 61 62 62
54 53 54 55 54 56 55 53 53 53 49 54 52 57 58 59 60 60 61 63 59 53 51 49 51 47 46 42 46 48 50 53 56 56 57 59 60 60 60 60 62 62 62 59 60 60 61 65 67 64 59 59 60 61
53 52 54 54 54 52 51 54 56 48 54 57 59 61 58 62 64 65 64 63 62 61 58 53 50 48 48 50 53 54 53 59 58 58 60 62 62 62 62 62 62 62 62 60 60 60 62 66 67 69 71 66 61 63
53 53 53 54 54 51 51 53 58 53 53 58 59 60 60 60 63 64 65 63 58 56 53 53 53 52 52 59 62 60 64 63 62 60 60 63 65 64 60 59 58 59 62 61 61 56 60 63 67 67 63 62 67 68
56 58 55 56 54 55 53 54 52 55 55 55 57 55 53 58 56 58 61 60 56 54 56 60 62 65 64 64 66 65 64 65 60 61 59 58 64 61 61 61 59 59 58 60 59 59 59 60 60 61 61 61 61 63
54 55 56 57 54 54 53 58 56 58 56 57 57 58 55 54 56 58 63 59 58 60 63 64 63 63 60 60 63 65 64 65 63 59 57 58 60 60 60 63 62 60 60 58 59 58 60 60 62 61 60 60 59 62
57 55 55 55 50 46 45 61 54 56 50 54 56 53 54 55 57 63 56 62 63 66 66 65 63 66 63 63 64 63 63 62 59 61 61 61 61 61 60 60 62 62 60 61 59 59 59 56 59 62 61 61 62 61
51 52 49 49 50 44 58 52 56 55 55 51 53 50 50 51 55 54 53 54 54 57 56 57 62 60 60 60 58 58 60 62 60 61 62 61 59 60 62 63 66 67 62 62 62 62 61 61 58 64 63 61 59 58
41 43 44 35 51 50 50 52 53 53 50 51 50 51 49 53 48 52 53 53 55 56 57 58 58 58 56 56 57 62 63 64 60 58 58 60 61 60 63 66 66 66 64 62 61 61 61 61 61 62 64 62 60 59
36 48 40 49 52 51 51 49 50 51 53 52 52 52 55 52 51 49 50 53 55 56 56 55 55 55 56 58 60 59 61 60 59 59 64 67 66 65 64 63 61 59 68 68 67 66 65 66 66 65 63 60 53 61
38 47 53 60 56 55 53 55 56 53 50 48 50 52 50 47 49 49 53 55 55 56 58 58 56 56 58 62 63 64 69 70 68 68 68 69 69 69 66 63 62 62 65 68 67 67 66 63 63 64 64 65 65 65
51 53 49 53 52 58 50 52 51 50 51 53 53 49 47 46 47 52 54 57 56 57 58 57 60 62 62 66 69 70 70 69 72 73 73 72 71 70 69 69 65 55 63 63 69 69 69 68 67 67 66 64 63 66
52 56 55 51 52 52 53 53 52 54 55 54 48 46 49 52 54 53 54 55 56 60 58 57 63 68 69 69 71 73 72 73 69 65 62 61 64 67 70 70 70 70 69 67 48 57 65 66 66 67 67 65 63 63
53 58 53 53 50 49 53 53 53 54 55 54 54 52 50 52 54 56 53 54 57 58 62 69 69 69 66 68 67 67 70 70 69 65 64 64 66 71 71 70 70 71 71 69 70 69 57 65 63 67 65 64 63 62
54 52 49 49 48 53 54 55 54 53 53 52 53 48 48 50 57 59 58 62 64 66 67 66 68 69 66 64 64 63 62 65 64 65 65 71 71 69 69 69 70 70 69 68 67 67 67 66 65 63 63 62 61 59
50 47 45 41 42 46 48 46 48 49 49 48 48 52 55 53 52 60 66 66 65 65 63 67 69 67 69 67 65 62 54 61 59 60 62 63 64 66 69 71 71 71 69 68 67 66 65 64 63 62 62 61 60 60
46 46 46 44 43 46 49 49 49 48 51 51 53 56 57 62 61 67 72 71 69 71 71 70 70 68 65 65 63 61 58 58 47 41 43 43 44 52 64 65 69 69 68 67 66 65 64 63 62 61 61 61 60 60
MSLP
1021.47 1021.51 1021.54 1021.58 1021.54 1021.41 1021.24 1021.07 1020.86 1020.60 1020.31 1020.00 1019.72 1019.44 1019.20 1018.91 1018.60 1018.35 1017.11 1016.08 1015.96 1014.92 1012.96 1012.01 1011.44 1010.95 1010.26 1009.53 1009.00 1007.94 1007.49 1006.98 1006.70 1006.81 1007.00 1006.81 1006.36 1005.70 1005.23 1004.76 1004.68 1004.87 1004.96 1004.92 1004.28 1003.55 1001.91 1001.08 1001.26 1001.10 1000.46 1000.14 1001.14 999.48
1020.98 1021.08 1021.19 1021.21 1021.19 1021.12 1021.04 1020.87 1020.64 1020.39 1020.14 1019.87 1019.61 1019.34 1019.05 1018.82 1018.60 1018.35 1017.36 1016.22 1015.87 1015.48 1013.36 1011.85 1011.09 1010.75 1010.28 1009.69 1009.62 1008.87 1008.61 1008.13 1007.54 1007.69 1008.03 1008.04 1007.82 1007.16 1006.48 1006.12 1005.40 1006.23 1007.70 1007.13 1005.86 1003.72 1001.89 1001.10 1000.66 1000.40 1000.36 1000.05 1000.85 1000.87
1020.51 1020.71 1020.83 1020.86 1020.91 1020.83 1020.71 1020.66 1020.45 1020.18 1019.97 1019.67 1019.44 1019.18 1018.86 1018.67 1018.44 1018.33 1017.67 1016.78 1015.94 1014.73 1012.46 1010.50 1009.44 1008.26 1007.71 1008.12 1008.57 1008.95 1008.46 1008.13 1007.93 1008.00 1008.18 1008.32 1008.32 1007.85 1007.52 1007.00 1006.78 1007.07 1007.35 1007.52 1006.88 1004.52 1003.17 1002.21 1001.32 1001.29 1000.63 1000.16 1000.87 1001.73
1020.23 1020.44 1020.59 1020.64 1020.60 1020.58 1020.46 1020.31 1020.17 1019.97 1019.78 1019.49 1019.19 1018.90 1018.68 1018.51 1018.21 1018.04 1017.52 1016.67 1016.18 1015.65 1013.77 1009.86 1008.30 1008.51 1007.65 1007.14 1007.31 1007.46 1007.68 1007.91 1008.10 1008.22 1008.45 1008.35 1008.36 1007.70 1007.48 1007.20 1006.93 1006.60 1007.02 1007.33 1006.81 1005.43 1003.28 1002.70 1004.13 1003.16 1001.50 1000.66 1000.41 1001.13
1019.97 1020.18 1020.30 1020.46 1020.40 1020.26 1020.21 1020.04 1019.85 1019.70 1019.47 1019.22 1018.94 1018.65 1018.41 1018.21 1018.02 1017.62 1016.80 1016.14 1015.71 1015.89 1014.55 1012.03 1010.14 1007.95 1007.18 1006.97 1006.66 1006.67 1006.98 1007.46 1007.92 1008.27 1008.43 1008.32 1007.94 1007.81 1007.26 1006.83 1006.09 1005.89 1005.78 1006.21 1005.91 1005.50 1005.54 1003.96 1004.72 1005.78 1003.37 1002.49 1002.61 1002.26
1019.72 1020.01 1020.05 1020.09 1020.13 1020.04 1019.86 1019.71 1019.50 1019.34 1019.17 1018.90 1018.65 1018.43 1018.18 1017.96 1017.79 1017.21 1015.91 1015.67 1015.73 1015.39 1015.31 1013.42 1010.60 1008.37 1007.34 1007.05 1006.97 1006.99 1007.05 1007.26 1007.38 1007.80 1007.98 1007.78 1007.42 1007.66 1007.30 1006.05 1005.12 1005.02 1005.08 1005.06 1005.17 1004.91 1005.05 1004.76 1004.33 1004.59 1004.60 1001.39 1000.26 1000.26
1019.64 1019.83 1019.93 1019.89 1019.80 1019.65 1019.52 1019.31 1019.14 1018.93 1018.69 1018.50 1018.33 1018.20 1018.02 1017.84 1017.78 1017.18 1016.86 1016.31 1015.95 1015.86 1015.51 1014.10 1010.97 1008.22 1007.68 1007.16 1007.00 1006.88 1006.81 1006.99 1007.05 1007.41 1007.73 1007.72 1007.66 1007.82 1006.94 1005.79 1004.55 1003.97 1003.94 1003.86 1003.57 1004.21 1004.43 1004.26 1004.91 1005.32 1004.35 1001.38 999.83 1000.57
1019.53 1019.62 1019.65 1019.66 1019.58 1019.43 1019.22 1018.98 1018.76 1018.51 1018.24 1018.09 1017.94 1017.84 1017.66 1017.47 1017.13 1016.60 1015.02 1015.22 1015.97 1016.10 1015.63 1014.22 1011.02 1008.79 1008.20 1007.83 1007.71 1007.69 1007.42 1007.30 1007.32 1007.45 1007.59 1007.62 1007.43 1007.18 1006.19 1004.49 1003.60 1003.27 1003.41 1003.66 1003.72 1003.91 1003.18 1004.40 1004.96 1003.50 1003.62 1002.31 999.62 1000.22
1019.35 1019.39 1019.40 1019.35 1019.30 1019.16 1018.86 1018.60 1018.40 1018.15 1017.92 1017.78 1017.60 1017.36 1017.24 1016.82 1015.71 1014.80 1014.52 1014.76 1015.36 1015.82 1015.01 1013.34 1010.95 1009.23 1008.17 1008.20 1008.15 1008.19 1008.24 1007.90 1007.23 1006.97 1006.84 1007.12 1006.54 1005.89 1004.61 1004.00 1003.58 1003.23 1003.31 1003.01 1003.02 1003.46 1004.11 1004.11 1003.93 1003.16 1002.70 1002.04 999.81 999.36
1019.15 1019.11 1019.13 1019.02 1018.91 1018.71 1018.49 1018.24 1018.00 1017.75 1017.60 1017.46 1017.39 1016.72 1015.82 1014.68 1014.42 1014.66 1014.99 1015.15 1015.35 1014.95 1014.43 1012.42 1010.58 1009.29 1008.39 1008.16 1008.20 1008.48 1008.36 1008.16 1007.38 1006.29 1005.80 1005.80 1005.25 1004.53 1003.74 1003.70 1003.61 1003.31 1002.69 1002.69 1002.65 1003.16 1003.84 1003.95 1002.93 1001.50 1002.18 1001.68 998.59 999.27
1018.86 1018.89 1018.86 1018.71 1018.56 1018.40 1018.14 1017.83 1017.59 1017.50 1017.18 1017.00 1016.66 1015.74 1014.58 1014.39 1014.43 1014.12 1013.97 1014.21 1013.76 1013.23 1012.34 1010.63 1009.57 1008.84 1007.81 1007.89 1008.22 1008.28 1008.19 1007.91 1007.54 1006.20 1005.78 1004.95 1004.07 1003.93 1003.82 1003.53 1003.07 1002.59 1001.88 1001.87 1002.15 1002.93 1003.34 1003.29 1003.14 1001.99 1001.21 1000.46 999.62 999.41
1018.58 1018.60 1018.59 1018.44 1018.30 1018.14 1017.97 1017.74 1017.61 1017.55 1017.27 1017.42 1017.39 1016.22 1014.82 1014.11 1013.63 1013.27 1012.80 1012.30 1011.91 1011.01 1010.56 1009.99 1009.40 1008.93 1008.38 1008.00 1008.22 1008.06 1007.95 1008.17 1007.38 1006.89 1006.18 1004.82 1004.11 1003.76 1003.66 1003.26 1002.81 1002.37 1001.98 1001.74 1001.80 1002.26 1002.16 1001.92 1001.88 1001.77 1000.83 1002.22 1002.01 999.10
1018.38 1018.40 1018.33 1018.18 1018.06 1017.95 1017.82 1017.67 1017.62 1017.58 1017.26 1016.36 1016.62 1015.43 1014.17 1013.30 1012.71 1011.91 1010.90 1010.86 1011.05 1010.44 1010.18 1009.80 1009.49 1009.14 1008.59 1008.20 1008.06 1007.82 1007.50 1007.17 1007.03 1006.77 1005.63 1004.92 1004.22 1003.95 1003.53 1003.16 1002.62 1002.06 1001.59 1001.15 1001.45 1001.82 1001.81 1001.79 1000.85 1000.44 1001.44 1000.39 1000.52 999.86
1018.20 1018.12 1018.03 1017.91 1017.78 1017.69 1017.55 1017.45 1017.46 1017.37 1017.23 1016.25 1015.22 1014.49 1013.26 1011.77 1010.89 1010.19 1009.99 1010.03 1010.01 1009.90 1009.86 1009.71 1009.36 1009.10 1008.58 1008.29 1007.70 1007.13 1006.28 1006.08 1006.33 1005.25 1005.33 1004.65 1004.37 1004.18 1003.90 1003.47 1002.82 1002.07 1001.51 1001.08 1001.61 1001.49 1001.56 1002.31 1002.20 1000.59 1000.69 999.23 999.62 1000.06
1017.92 1017.84 1017.72 1017.43 1017.22 1017.25 1017.26 1017.22 1017.22 1017.09 1016.72 1015.69 1014.31 1013.08 1011.62 1010.34 1009.54 1009.53 1008.96 1009.49 1009.53 1009.38 1009.53 1009.42 1009.09 1008.77 1008.53 1008.31 1007.65 1006.75 1005.99 1005.34 1005.24 1005.14 1004.68 1004.31 1004.19 1004.21 1004.11 1003.75 1003.11 1002.25 1001.60 1001.02 1001.24 1001.98 1001.05 1002.03 1002.34 1001.63 1000.64 999.36 999.81 1000.28
1017.68 1017.41 1017.17 1017.10 1017.09 1017.11 1017.10 1017.06 1016.93 1016.74 1016.26 1015.14 1013.49 1011.96 1010.72 1010.06 1009.23 1008.74 1008.74 1008.93 1008.91 1009.17 1009.66 1009.89 1009.44 1008.74 1008.21 1007.89 1007.31 1006.65 1006.15 1005.37 1005.22 1005.03 1004.73 1004.26 1004.02 1003.78 1003.68 1003.66 1003.37 1002.52 1001.73 1001.19 1000.80 1000.37 1000.04 1000.01 1000.10 1000.86 1000.77 1000.89 1001.38 1001.81
1017.59 1017.12 1017.08 1016.97 1016.92 1016.98 1017.02 1016.97 1016.48 1016.00 1015.04 1013.42 1011.82 1010.62 1010.22 1009.73 1009.19 1008.57 1008.55 1008.18 1008.42 1009.13 1009.59 1009.77 1009.45 1008.38 1008.19 1007.61 1006.98 1007.17 1006.70 1006.10 1005.52 1004.71 1004.29 1003.90 1003.74 1003.48 1003.16 1002.92 1002.90 1002.67 1001.79 1001.52 1000.78 1000.33 1000.01 999.83 999.85 1000.81 1001.41 1001.15 1001.41 1002.22
1017.32 1017.09 1017.08 1016.98 1016.91 1016.64 1016.51 1016.53 1015.51 1014.37 1013.20 1011.91 1011.00 1010.02 1009.45 1009.08 1008.44 1008.15 1007.98 1008.01 1008.30 1008.80 1009.35 1009.23 1009.22 1008.74 1008.11 1008.02 1007.34 1007.30 1006.31 1005.49 1004.91 1004.45 1004.07 1003.52 1003.29 1003.16 1002.84 1002.44 1002.21 1002.13 1002.03 1001.82 1001.02 1000.46 1000.11 1000.17 1000.15 1000.94 1001.74 1001.87 1003.06 1002.66
1017.16 1017.22 1017.10 1017.06 1016.98 1016.84 1015.81 1014.99 1014.45 1013.16 1011.42 1010.50 1009.91 1009.31 1008.94 1008.34 1007.81 1007.55 1007.49 1007.24 1007.53 1007.87 1008.25 1008.36 1008.37 1007.83 1007.43 1006.83 1006.03 1005.71 1005.33 1004.78 1004.32 1003.96 1003.58 1003.30 1002.90 1002.65 1002.55 1002.50 1002.20 1002.01 1002.04 1001.93 1001.88 1001.85 1001.30 1000.30 1000.25 1000.46 1000.92 1001.91 1002.58 1002.38
1016.95 1016.81 1016.79 1016.87 1016.91 1016.30 1015.04 1013.86 1013.10 1012.30 1010.50 1009.56 1009.20 1008.77 1008.49 1008.08 1007.57 1007.24 1007.00 1007.14 1007.53 1007.77 1007.79 1007.51 1006.90 1006.44 1006.26 1005.58 1004.71 1004.56 1004.11 1003.89 1003.89 1003.71 1003.44 1003.04 1002.50 1002.26 1002.61 1002.41 1002.39 1002.17 1002.41 1002.43 1002.46 1002.21 1001.39 1000.88 1000.75 1000.86 1001.09 1001.52 1001.57 1001.78
1016.29 1015.98 1016.25 1016.50 1016.17 1015.75 1014.72 1013.14 1012.14 1011.13 1010.40 1009.64 1009.13 1008.77 1008.46 1007.97 1007.60 1007.14 1006.66 1006.64 1007.15 1007.12 1006.58 1006.09 1005.71 1005.10 1004.67 1004.29 1003.88 1003.78 1003.78 1003.76 1003.80 1003.79 1003.77 1003.56 1002.91 1002.71 1002.59 1002.52 1002.50 1002.17 1002.37 1002.49 1002.48 1002.60 1002.28 1002.37 1002.13 1002.01 1001.65 1001.73 1001.97 1001.94
1016.18 1016.09 1015.97 1015.97 1015.34 1014.57 1013.74 1012.44 1011.38 1010.62 1010.33 1009.42 1008.81 1008.35 1007.97 1007.52 1006.95 1006.56 1006.36 1006.31 1006.14 1005.63 1005.29 1005.11 1004.90 1004.81 1004.28 1004.49 1004.11 1003.90 1003.86 1003.76 1003.80 1003.96 1003.74 1003.52 1003.37 1003.27 1003.13 1002.72 1002.31 1002.51 1002.61 1002.42 1002.07 1002.58 1002.86 1002.56 1002.55 1002.44 1002.00 1000.94 1000.99 1002.20
1016.01 1016.02 1015.48 1015.06 1014.55 1013.56 1012.69 1011.28 1010.79 1010.12 1009.68 1008.73 1008.35 1007.93 1007.29 1006.87 1006.51 1006.12 1006.03 1005.39 1005.13 1004.76 1004.65 1004.61 1004.32 1004.26 1004.46 1004.52 1004.45 1004.45 1004.36 1004.26 1004.37 1004.31 1004.07 1003.96 1003.85 1003.68 1003.57 1003.29 1002.89 1002.61 1002.86 1002.70 1002.74 1002.95 1003.01 1002.91 1003.03 1002.57 1002.52 1002.29 1002.69 1003.46
1016.18 1015.64 1014.89 1014.17 1013.56 1012.73 1011.26 1010.70 1010.16 1009.73 1009.10 1008.86 1008.35 1008.06 1007.82 1007.55 1007.06 1006.60 1006.00 1005.82 1006.25 1005.79 1005.70 1005.63 1004.76 1004.85 1004.97 1005.04 1005.16 1005.02 1004.73 1004.58 1004.74 1004.69 1004.48 1004.26 1004.27 1004.04 1003.78 1003.68 1003.30 1003.00 1003.08 1002.88 1002.93 1003.18 1003.31 1003.21 1002.97 1002.92 1003.35 1003.79 1003.69 1003.54
1015.89 1015.31 1014.70 1013.93 1012.84 1011.83 1010.57 1009.78 1009.36 1009.15 1008.74 1008.55 1008.51 1008.08 1008.23 1007.82 1007.49 1006.70 1006.46 1006.66 1006.35 1006.64 1006.39 1006.18 1005.80 1005.58 1005.58 1005.61 1005.45 1005.18 1005.11 1005.03 1004.98 1004.88 1004.73 1004.67 1004.40 1004.09 1004.06 1004.01 1003.82 1003.66 1003.53 1003.61 1003.54 1003.61 1003.73 1003.59 1003.53 1003.42 1003.80 1004.21 1004.27 1004.54
1015.19 1013.85 1013.42 1011.94 1011.09 1010.59 1009.99 1009.39 1009.05 1008.88 1008.58 1008.37 1008.33 1008.42 1008.05 1007.85 1007.38 1007.34 1007.61 1007.82 1007.65 1007.41 1007.28 1006.95 1006.59 1006.15 1006.11 1005.87 1005.54 1005.43 1005.19 1004.86 1005.00 1005.00 1004.82 1004.61 1004.39 1004.26 1004.42 1004.63 1004.66 1004.59 1004.13 1004.08 1004.06 1004.11 1004.17 1004.25 1004.31 1004.48 1004.81 1005.00 1005.16 1005.29
1013.88 1012.24 1011.60 1010.91 1010.72 1010.42 1009.91 1009.51 1009.19 1009.07 1008.90 1008.78 1008.83 1008.69 1008.67 1008.33 1008.14 1008.58 1008.54 1008.39 1008.08 1007.83 1007.51 1007.27 1007.06 1006.88 1006.35 1005.90 1005.50 1005.07 1004.61 1004.34 1004.38 1004.30 1004.40 1004.50 1004.50 1004.60 1004.77 1005.04 1005.19 1005.20 1004.76 1004.72 1004.63 1004.72 1004.94 1005.09 1005.03 1005.08 1005.19 1005.24 1005.36 1005.62
1012.26 1011.21 1010.71 1010.63 1010.39 1009.95 1009.93 1009.50 1009.30 1009.04 1009.14 1009.44 1009.33 1009.19 1009.34 1009.35 1009.35 1009.36 1009.07 1008.92 1008.55 1007.96 1007.71 1007.46 1007.06 1006.70 1006.39 1005.99 1005.51 1005.12 1004.61 1004.35 1004.19 1004.36 1004.86 1004.97 1004.98 1005.09 1005.05 1005.19 1005.39 1005.21 1005.30 1005.27 1005.10 1005.18 1005.28 1005.45 1005.56 1005.57 1005.68 1005.90 1006.06 1005.97
1011.25 1010.56 1010.41 1010.29 1010.13 1009.94 1009.79 1009.50 1009.34 1009.35 1009.73 1009.88 1010.15 1010.25 1010.13 1009.93 1009.64 1009.60 1009.51 1009.16 1008.88 1008.37 1007.98 1007.41 1007.11 1006.50 1006.09 1006.05 1005.66 1005.39 1005.14 1004.89 1004.85 1005.10 1005.49 1005.58 1005.52 1005.43 1005.24 1005.36 1005.35 1005.31 1005.34 1005.58 1005.76 1005.80 1005.75 1006.02 1005.92 1005.77 1005.98 1006.24 1006.52 1006.64
1010.48 1010.33 1010.29 1010.29 1010.27 1010.09 1009.92 1010.04 1010.08 1010.41 1010.54 1010.70 1010.78 1010.71 1010.46 1009.81 1009.26 1009.11 1008.94 1008.83 1008.62 1008.00 1007.48 1006.82 1006.59 1006.35 1006.07 1006.15 1006.40 1006.48 1006.54 1006.66 1006.62 1006.69 1006.09 1006.04 1006.12 1005.99 1005.91 1005.92 1006.07 1006.06 1006.01 1006.05 1006.24 1006.19 1005.99 1006.18 1006.38 1006.38 1006.59 1006.90 1007.07 1007.35
1010.43 1010.57 1010.68 1010.73 1010.58 1010.30 1010.41 1010.63 1010.79 1010.83 1010.85 1010.62 1010.40 1010.62 1010.48 1009.87 1009.05 1008.33 1008.31 1008.15 1007.93 1007.55 1007.06 1006.86 1006.71 1006.82 1007.06 1007.30 1007.35 1007.48 1007.84 1008.05 1008.04 1007.67 1007.54 1007.06 1006.97 1006.95 1006.90 1006.75 1006.71 1006.78 1006.86 1006.91 1007.08 1007.07 1006.99 1007.04 1007.11 1007.29 1007.53 1007.76 1007.93 1008.16
1010.83 1010.92 1011.12 1011.24 1011.04 1010.64 1010.71 1010.54 1010.46 1010.29 1010.31 1010.27 1009.91 1009.83 1009.57 1009.32 1008.13 1007.27 1007.11 1007.43 1007.42 1006.94 1006.61 1006.62 1006.92 1007.51 1007.83 1008.26 1008.66 1008.98 1009.18 1009.34 1009.32 1009.05 1008.78 1008.62 1008.50 1008.20 1007.93 1007.54 1007.56 1007.55 1007.61 1007.80 1007.97 1008.01 1008.06 1008.10 1008.20 1008.27 1008.43 1008.58 1008.72 1008.94
1010.76 1010.84 1010.86 1010.82 1010.41 1009.59 1009.51 1009.51 1009.35 1009.47 1009.52 1009.42 1008.89 1008.39 1007.93 1006.61 1006.18 1005.80 1005.78 1006.16 1006.43 1006.16 1006.40 1006.93 1007.60 1008.08 1008.46 1008.88 1009.31 1009.66 1009.86 1010.14 1010.19 1010.06 1009.85 1009.69 1009.60 1009.44 1009.15 1008.89 1008.39 1008.31 1008.35 1008.50 1008.64 1008.80 1008.91 1008.98 1009.05 1009.10 1009.14 1009.15 1009.14 1009.14
Wind_Speed
9 9 8 9 10 9 10 11 12 12 13 12 13 13 12 12 11 7 7 5 3 4 13 9 11 10 11 7 5 8 7 7 4 2 5 4 4 5 5 6 4 2 4 4 7 13 19 7 2 7 6 5 2 16
10 9 8 8 8 9 10 11 11 11 12 13 13 13 11 10 10 8 5 6 5 4 9 21 21 20 22 19 10 5 8 8 3 1 3 3 4 5 7 4 5 2 5 6 3 6 4 7 7 6 3 4 5 8
10 8 8 7 7 8 9 10 11 11 12 12 12 13 11 10 10 7 6 7 7 6 11 9 10 13 17 20 15 8 6 5 2 2 2 2 3 3 3 4 5 3 5 4 9 6 9 10 6 6 4 4 6 6
8 8 7 7 7 8 10 10 11 11 12 12 12 12 11 11 11 10 5 7 3 3 5 7 15 13 18 13 14 15 12 11 6 3 4 2 1 3 4 6 6 5 6 5 12 5 12 11 13 10 11 12 10 14
8 7 6 7 7 8 10 11 12 12 12 12 13 12 10 10 11 9 7 7 6 2 5 10 20 13 13 8 6 5 5 5 3 3 3 4 4 3 6 8 8 6 7 4 5 6 2 10 5 13 3 6 18 27
8 7 6 6 7 9 11 12 11 11 12 12 12 11 10 10 10 5 2 3 5 3 2 6 8 12 7 6 5 6 5 4 4 4 3 5 4 4 4 4 3 2 6 7 6 7 7 13 15 18 16 8 3 4
7 6 6 6 8 9 11 10 11 12 12 11 10 11 10 9 5 4 3 3 6 3 0 5 5 3 3 6 3 3 4 6 3 1 1 2 4 2 5 13 16 13 8 7 4 1 5 8 4 12 18 14 6 7
6 6 6 7 8 10 11 12 12 13 12 10 10 10 11 11 11 6 7 15 6 1 2 4 6 3 4 2 3 3 2 2 0 2 2 4 3 4 5 10 13 8 3 6 8 7 8 2 6 18 24 25 12 11
4 5 6 8 9 11 12 12 13 12 11 9 11 13 5 4 3 1 5 9 5 2 3 4 4 3 3 2 2 0 2 2 3 4 6 4 4 7 8 9 7 6 5 8 5 7 8 8 10 9 15 25 15 12
5 6 7 8 9 11 12 12 12 11 9 9 5 3 3 2 13 8 3 3 3 3 5 6 6 7 5 2 2 2 1 3 3 5 3 5 8 10 10 7 5 8 13 13 7 6 1 4 8 13 11 20 15 11
5 7 7 8 8 9 10 11 6 7 8 3 2 3 3 8 3 3 3 4 5 5 6 5 6 5 4 2 1 2 2 1 3 3 3 3 3 3 6 7 7 10 5 5 6 9 7 2 6 9 12 12 6 13
6 6 6 6 7 8 9 8 4 3 2 3 4 7 5 3 4 4 3 4 5 3 2 4 2 2 4 1 1 3 2 1 5 4 3 4 1 5 5 9 9 8 9 7 7 10 6 3 2 5 8 19 23 14
3 6 7 7 8 8 8 7 5 7 10 4 3 4 3 4 2 5 4 1 5 5 1 2 3 2 3 2 3 3 4 5 3 3 2 4 4 6 6 8 11 11 10 10 10 10 7 2 7 7 12 24 27 13
6 7 8 9 9 9 9 8 6 7 4 3 3 4 4 4 5 3 2 3 2 2 3 3 3 2 2 2 3 3 4 4 3 2 5 3 5 7 7 8 9 12 13 13 11 11 11 13 15 15 21 11 12 10
6 8 9 12 7 4 6 4 5 3 2 3 4 4 5 7 6 8 3 3 2 1 2 4 3 3 3 3 4 4 4 3 3 3 3 1 4 4 6 7 8 10 11 9 1 14 19 20 11 9 5 7 10 9
8 13 4 3 5 5 3 4 3 1 2 4 5 6 5 7 6 3 1 4 3 3 3 0 3 3 3 3 3 3 8 3 3 3 4 5 6 6 4 3 5 8 8 7 8 7 11 13 8 6 5 8 7 7
7 2 1 3 3 3 3 2 2 5 4 5 5 7 7 7 8 6 3 1 3 2 0 1 3 1 4 3 2 4 2 5 7 6 4 6 6 7 7 6 4 6 4 6 5 7 5 7 10 7 7 4 7 6
2 2 4 5 2 2 2 4 4 5 7 7 8 8 5 5 7 6 2 2 3 4 3 3 1 3 1 1 3 1 6 5 6 5 5 6 6 6 5 7 7 6 5 5 8 11 14 12 6 7 10 13 7 18
4 5 7 6 4 3 3 4 5 5 8 5 7 7 4 6 5 6 4 4 3 3 2 1 3 3 3 6 4 5 8 6 3 4 3 6 6 5 5 7 7 8 6 4 7 6 6 4 4 3 7 11 9 5
12 13 11 6 3 3 4 4 3 5 5 2 3 5 4 6 6 6 5 1 3 3 3 3 4 3 4 8 3 3 6 2 3 3 4 4 4 2 2 4 3 5 3 6 2 7 4 5 7 6 4 6 0 2
5 2 8 5 4 5 4 4 4 3 5 4 5 1 3 3 4 7 6 3 2 4 6 6 8 8 7 5 2 1 4 3 4 3 5 6 6 5 1 2 3 3 3 3 3 5 9 4 2 2 3 2 2 4
1 3 2 5 4 4 5 6 5 4 4 7 9 6 6 6 6 6 6 6 5 7 8 8 6 7 3 3 4 4 5 6 7 4 6 4 5 5 4 7 4 1 3 1 1 3 3 5 3 4 4 2 4 7
5 3 3 4 4 2 7 4 4 3 3 4 3 3 3 2 3 3 2 5 4 3 4 4 6 3 5 6 6 7 7 6 4 4 4 4 4 4 5 5 5 6 4 2 1 1 0 2 5 4 4 7 9 6
3 3 3 3 5 5 4 4 3 3 3 3 4 5 3 3 4 3 3 2 3 7 6 11 4 4 5 6 5 5 4 2 3 4 4 4 5 5 4 5 6 7 5 4 4 6 7 6 8 8 9 8 7 9
0 4 3 5 4 4 4 4 4 4 6 4 4 2 1 3 3 3 2 3 5 5 5 5 5 6 5 1 2 2 5 3 2 4 3 1 2 4 6 7 7 7 5 5 6 6 5 5 6 8 10 8 11 10
3 5 6 5 3 4 3 3 2 4 5 3 2 3 2 3 3 3 3 5 4 4 3 4 3 5 3 1 3 0 3 3 1 2 2 3 2 4 6 7 7 7 5 6 7 8 9 8 8 8 7 8 10 7
4 6 5 6 3 5 4 3 4 3 3 3 2 4 4 3 2 3 3 4 4 4 3 3 3 2 2 3 4 5 4 3 1 4 3 4 5 6 6 5 6 3 5 6 6 6 8 6 5 6 6 7 8 7
6 4 6 2 4 4 6 5 3 3 3 2 4 3 5 2 2 2 3 4 6 5 2 3 3 2 2 4 5 6 3 4 5 5 9 7 6 4 4 4 4 8 6 6 6 5 6 6 7 7 7 6 5 6
6 4 3 7 5 3 3 3 3 2 1 1 2 2 3 2 2 2 3 4 7 2 3 4 3 6 5 3 5 8 9 9 8 9 10 3 2 2 2 4 2 2 3 4 8 6 6 6 7 7 8 8 8 9
8 6 7 8 6 4 1 4 4 4 4 2 2 2 3 3 3 2 4 4 2 3 5 3 2 4 3 7 7 8 10 11 11 10 6 8 8 7 7 6 6 6 9 6 7 4 6 5 7 9 10 8 7 8
2 2 1 2 3 3 3 5 2 2 2 3 0 2 2 4 4 3 5 4 5 6 4 4 2 8 9 9 7 7 7 8 11 13 13 9 7 6 6 6 7 7 8 8 8 9 9 9 8 9 9 9 11 12
1 1 1 1 4 4 2 3 3 3 3 2 3 3 3 4 5 5 6 7 6 8 6 5 10 9 8 8 8 8 10 6 7 8 12 8 8 11 10 5 7 6 6 8 8 9 10 10 9 10 9 9 9 10
2 3 2 3 4 3 3 5 3 3 2 3 4 6 5 4 4 3 5 8 8 6 9 10 9 8 10 10 9 7 8 6 7 7 9 13 13 10 8 8 6 7 8 7 8 8 9 9 7 7 7 8 8 6
Wind_Direction
253 261 273 288 298 309 315 319 323 323 327 326 325 326 326 336 345 345 296 309 342 291 294 276 311 317 318 309 282 328 336 18 344 313 302 306 301 292 299 306 334 269 221 259 227 230 246 149 66 193 224 57 20 18
245 249 263 279 292 304 312 318 320 319 323 324 323 321 318 328 334 340 282 341 337 259 282 302 284 268 259 261 281 306 297 319 293 12 353 338 336 308 335 293 35 7 32 307 324 312 267 206 189 197 186 46 50 21
235 240 253 273 288 299 307 313 314 321 325 326 319 319 317 326 323 321 296 297 305 275 283 247 263 278 227 226 229 250 271 279 18 345 294 228 246 312 316 300 334 44 85 323 316 321 325 303 40 50 1 150 74 346
216 235 251 267 285 294 301 304 307 308 312 317 317 314 313 315 318 322 289 293 275 282 282 286 353 330 313 309 220 215 230 259 275 303 307 275 314 281 276 280 268 214 148 192 252 330 340 38 13 11 48 349 327 291
212 227 244 268 282 293 300 304 305 303 302 307 309 307 305 311 314 299 264 259 260 196 304 301 303 285 296 247 298 312 233 219 225 260 250 246 243 302 274 273 266 182 180 171 242 140 173 293 320 346 152 219 274 256
207 225 240 262 284 297 308 308 300 298 301 306 309 304 302 309 324 294 290 48 2 139 286 303 333 286 323 332 301 274 272 275 199 190 226 239 243 209 277 264 236 161 203 185 209 168 185 244 302 288 225 183 324 125
209 229 254 278 291 303 308 309 305 296 290 300 300 304 302 306 302 255 316 286 340 312 231 285 272 264 342 293 299 258 262 236 202 152 284 307 285 273 247 269 276 274 225 247 262 184 222 285 300 311 313 260 186 235
220 243 269 287 297 301 304 310 307 302 299 304 304 301 293 287 275 267 233 226 219 305 232 271 263 234 2 296 323 8 336 3 201 218 171 234 242 216 249 241 259 274 162 214 232 224 298 65 329 318 307 250 172 169
233 263 282 291 294 298 305 308 305 299 296 294 293 288 280 212 235 47 91 115 169 259 282 247 280 325 164 292 212 233 354 271 245 228 218 220 206 224 229 247 275 328 325 289 232 219 201 287 305 292 331 245 165 134
257 276 281 288 295 305 306 300 292 293 288 293 276 240 249 234 112 134 165 133 184 224 223 259 271 269 272 184 267 280 97 248 259 230 193 207 245 257 267 343 319 291 275 257 254 260 136 329 320 315 325 329 141 137
267 278 286 297 304 312 316 317 305 305 270 217 255 234 315 151 226 215 208 214 185 220 210 239 233 271 289 300 288 241 231 259 277 314 203 244 257 32 355 306 318 310 276 232 185 120 137 205 280 308 316 319 266 131
273 280 309 320 321 320 321 332 328 279 28 304 288 277 255 222 222 238 229 226 213 247 1 310 282 240 284 12 269 222 250 121 251 343 277 264 294 297 304 307 322 318 304 272 174 147 159 261 258 259 331 283 313 127
281 293 300 305 311 308 309 321 304 295 300 255 196 247 202 230 340 230 228 71 355 315 225 258 304 298 314 300 246 220 238 221 124 216 276 281 281 295 319 342 327 317 296 292 129 153 163 78 309 348 302 290 249 130
289 294 290 292 289 292 294 288 286 290 265 253 246 279 225 214 239 204 280 271 231 264 266 257 270 229 261 262 249 260 248 80 255 152 231 282 341 341 350 330 328 327 326 315 158 174 178 188 151 211 239 157 117 120
295 296 288 283 274 257 289 273 276 245 277 269 265 243 239 256 300 341 303 40 239 223 318 317 298 219 244 259 246 272 243 238 344 5 314 15 293 316 321 327 336 326 326 326 12 192 201 204 218 211 316 79 120 115
308 293 227 224 287 288 253 242 228 240 254 254 242 262 269 284 290 309 116 188 250 116 124 140 275 275 240 228 250 289 331 358 14 343 343 325 308 309 310 324 310 311 312 336 330 325 204 193 144 146 63 44 30 5
302 238 334 307 287 229 219 252 226 222 246 242 236 253 266 274 277 295 306 204 112 71 208 298 288 335 293 248 63 297 301 302 327 314 299 285 300 307 312 314 331 309 296 293 326 353 343 312 116 116 131 39 7 302
297 81 38 7 326 228 219 208 247 239 235 245 257 268 263 259 279 277 345 284 161 157 168 223 278 266 314 263 270 267 277 270 271 272 289 294 298 305 305 310 319 326 339 333 359 351 335 311 142 138 132 121 231 268
327 313 324 329 336 287 247 223 217 259 238 242 250 260 288 283 268 265 254 265 185 154 217 213 251 233 180 216 247 215 230 250 291 287 251 273 278 291 323 358 349 333 349 56 360 282 275 347 23 65 154 158 185 204
283 281 266 269 263 265 260 250 197 261 276 299 291 287 277 290 294 295 280 119 162 187 206 238 233 214 219 269 264 263 282 337 324 334 332 330 308 327 79 323 355 329 338 78 14 299 320 0 7 26 58 23 61 224
288 49 155 210 208 231 276 281 249 259 294 283 290 216 274 303 279 285 271 184 172 208 262 245 264 279 262 269 266 327 19 331 321 323 342 337 329 28 233 246 226 232 351 33 16 14 19 4 342 329 69 54 60 348
40 278 249 202 253 223 247 235 261 298 268 261 274 254 245 248 250 243 253 251 247 236 232 250 257 281 312 300 6 6 13 12 22 29 345 1 17 35 12 352 28 85 76 308 292 31 9 339 341 318 305 2 60 12
261 207 236 219 250 260 253 256 248 229 267 291 283 273 274 289 293 337 245 219 234 275 275 283 228 257 44 42 40 41 29 37 25 15 19 51 51 61 53 2 3 44 53 55 145 99 119 321 39 47 10 7 38 38
212 258 255 257 218 257 252 224 235 255 253 243 295 317 341 312 313 257 258 38 323 5 39 331 20 66 67 54 40 17 352 41 38 19 21 39 43 26 42 35 31 45 31 52 75 86 63 67 53 66 77 75 68 79
186 271 165 268 262 255 258 231 213 233 259 197 220 257 352 279 278 264 46 14 46 33 27 25 61 85 89 87 280 68 12 20 43 86 310 49 67 25 53 47 43 39 46 63 61 78 81 69 62 62 69 70 75 67
228 233 193 244 217 233 271 312 321 312 307 285 16 339 276 265 259 36 40 358 357 10 22 35 13 45 21 325 121 156 276 264 349 353 188 169 89 54 54 55 36 8 33 47 47 50 42 51 63 83 99 103 113 112
235 231 211 242 242 266 275 306 317 302 279 352 359 350 345 307 356 64 347 1 344 346 344 15 140 223 341 8 333 302 287 320 355 149 95 78 73 72 81 71 44 334 23 44 39 70 70 55 35 50 48 42 51 79
251 270 254 291 293 270 288 273 254 272 50 357 317 349 342 306 327 9 332 339 342 337 7 307 316 279 295 301 307 299 268 258 296 70 97 81 79 71 55 70 57 56 64 34 54 51 51 76 70 60 63 69 59 39
236 245 254 268 267 265 276 252 261 69 49 12 358 304 301 319 299 343 309 328 311 265 179 254 284 259 258 239 25 42 25 22 34 80 111 100 85 81 96 98 89 45 60 102 68 63 47 47 40 72 62 54 73 61
237 250 258 277 287 275 122 4 25 52 44 48 317 311 285 266 271 196 233 251 252 250 259 236 296 356 5 86 72 55 40 34 28 18 25 60 45 38 33 44 56 36 37 51 34 37 8 66 55 53 57 48 29 79
78 37 330 297 277 289 352 358 323 256 270 276 278 172 272 311 306 224 231 236 226 238 230 255 64 61 54 41 38 67 57 36 20 19 23 33 51 43 36 32 57 50 43 43 41 33 39 42 57 65 56 51 49 56
100 119 41 307 280 270 274 198 202 198 175 193 262 195 207 207 245 179 196 199 230 250 224 109 84 77 79 83 74 66 62 51 25 21 26 32 27 27 15 39 49 48 70 73 54 46 44 46 44 44 55 51 58 60
206 192 186 227 232 257 141 177 138 107 183 208 235 214 242 192 138 136 152 186 211 206 106 95 96 100 103 101 104 98 85 84 81 54 47 55 52 37 32 15 26 54 56 59 61 59 52 56 53 50 41 30 28 23